RYR5031 EPWA-EBBR

Flight info

Callsign RYR5031
Flight time N/A
Altitude 34000
Route LOLSI DCT DIBLO DCT INDIG DCT GOVEN DCT MAG DCT TOLGI DCT ABAMI Z717 NEREL/N0373F240 T855 AGENI/N0343F180 T855 BATTY
Aircraft B738/M-SDE2E3FGHIJ1LORVWXY/LB1

Departure

Time 2026-05-01 07:58
Airport Warsaw Chopin Airport (EPWA)

Arrival

Time N/A
Airport Brussels Airport (EBBR)
Time Latitude Longitude Altitude Speed Heading
2026-05-01 07:24 52.17279 20.96603 338 ft 0 kts 207°
2026-05-01 07:52 52.17279 20.96602 338 ft 0 kts 207°
2026-05-01 07:52 52.17278 20.96602 338 ft 0 kts 207°
2026-05-01 07:53 52.17270 20.96594 338 ft 2 kts 210°
2026-05-01 07:53 52.17257 20.96578 335 ft 4 kts 220°
2026-05-01 07:53 52.17218 20.96558 338 ft 8 kts 174°
2026-05-01 07:53 52.17153 20.96604 336 ft 12 kts 152°
2026-05-01 07:54 52.16960 20.96773 334 ft 19 kts 152°
2026-05-01 07:55 52.16617 20.97220 335 ft 24 kts 115°
2026-05-01 07:55 52.16478 20.97712 334 ft 23 kts 115°
2026-05-01 07:56 52.16291 20.98377 336 ft 18 kts 114°
2026-05-01 07:56 52.16129 20.98338 334 ft 16 kts 267°
2026-05-01 07:57 52.16139 20.98265 337 ft 0 kts 292°
2026-05-01 07:57 52.16219 20.97975 335 ft 62 kts 294°
2026-05-01 07:58 52.16900 20.95467 414 ft 166 kts 292°
2026-05-01 07:58 52.17904 20.91945 1763 ft 171 kts 296°
2026-05-01 07:59 52.18209 20.87722 2525 ft 212 kts 265°
2026-05-01 07:59 52.17977 20.82508 2981 ft 246 kts 278°
2026-05-01 08:00 52.19607 20.70858 5507 ft 267 kts 276°
2026-05-01 08:01 52.17914 20.61850 7296 ft 287 kts 253°
2026-05-01 08:01 52.17224 20.58773 7895 ft 290 kts 253°
2026-05-01 08:01 52.16530 20.55669 8445 ft 295 kts 253°
2026-05-01 08:02 52.15205 20.49279 9633 ft 297 kts 266°
2026-05-01 08:02 52.15180 20.45920 10095 ft 296 kts 281°
2026-05-01 08:03 52.15618 20.39279 11048 ft 309 kts 281°
2026-05-01 08:03 52.15814 20.35700 11203 ft 326 kts 280°
2026-05-01 08:03 52.16169 20.27965 11693 ft 354 kts 279°
2026-05-01 08:04 52.16485 20.19933 12768 ft 360 kts 279°
2026-05-01 08:04 52.16797 20.11702 13818 ft 368 kts 279°
2026-05-01 08:05 52.17111 20.03292 14793 ft 375 kts 279°
2026-05-01 08:05 52.17269 19.99038 15265 ft 378 kts 279°
2026-05-01 08:05 52.17427 19.94748 15725 ft 381 kts 279°
2026-05-01 08:06 52.17688 19.86026 16626 ft 392 kts 273°
2026-05-01 08:06 52.16968 19.77053 17520 ft 404 kts 266°
2026-05-01 08:07 52.16059 19.67957 18445 ft 409 kts 266°
2026-05-01 08:07 52.15204 19.58786 19247 ft 415 kts 267°
2026-05-01 08:08 52.14784 19.54128 19652 ft 417 kts 267°
2026-05-01 08:08 52.13941 19.44735 20423 ft 422 kts 267°
2026-05-01 08:09 52.13078 19.35228 21197 ft 427 kts 267°
2026-05-01 08:09 52.12636 19.30441 21588 ft 429 kts 266°
2026-05-01 08:09 52.12185 19.25623 21960 ft 431 kts 266°
2026-05-01 08:10 52.11269 19.15926 22695 ft 436 kts 266°
2026-05-01 08:10 52.10336 19.06132 23376 ft 441 kts 266°
2026-05-01 08:11 52.09385 18.96231 24066 ft 445 kts 266°
2026-05-01 08:11 52.08425 18.86320 24632 ft 448 kts 266°
2026-05-01 08:12 52.07443 18.76267 25206 ft 452 kts 266°
2026-05-01 08:12 52.06946 18.71215 25479 ft 453 kts 266°
2026-05-01 08:12 52.05940 18.61059 26012 ft 457 kts 266°
2026-05-01 08:13 52.05432 18.55963 26284 ft 458 kts 265°
2026-05-01 08:13 52.04918 18.50838 26549 ft 460 kts 265°
2026-05-01 08:13 52.03881 18.40553 27056 ft 463 kts 265°
2026-05-01 08:14 52.03355 18.35373 27306 ft 464 kts 265°
2026-05-01 08:14 52.02824 18.30164 27540 ft 466 kts 265°
2026-05-01 08:14 52.02294 18.24989 27778 ft 468 kts 265°
2026-05-01 08:14 52.01755 18.19760 28017 ft 469 kts 265°
2026-05-01 08:15 52.01217 18.14555 28263 ft 470 kts 265°
2026-05-01 08:15 52.00128 18.04080 28711 ft 473 kts 265°
2026-05-01 08:15 51.99719 17.98746 28916 ft 470 kts 272°
2026-05-01 08:16 51.99770 17.93463 29131 ft 467 kts 278°
2026-05-01 08:16 51.99951 17.88227 29344 ft 467 kts 279°
2026-05-01 08:16 52.00153 17.82976 29547 ft 468 kts 279°
2026-05-01 08:16 52.00354 17.77674 29753 ft 470 kts 278°
2026-05-01 08:17 52.00542 17.72395 30017 ft 470 kts 278°
2026-05-01 08:17 52.00718 17.67072 30335 ft 468 kts 278°
2026-05-01 08:17 52.00878 17.61878 30616 ft 467 kts 278°
2026-05-01 08:17 52.01034 17.56593 30844 ft 466 kts 278°
2026-05-01 08:18 52.01184 17.51340 31051 ft 466 kts 278°
2026-05-01 08:18 52.01476 17.40806 31495 ft 465 kts 277°
2026-05-01 08:19 52.01756 17.30425 31920 ft 463 kts 277°
2026-05-01 08:19 52.01894 17.25198 32123 ft 462 kts 277°
2026-05-01 08:19 52.02030 17.19966 32331 ft 462 kts 277°
2026-05-01 08:19 52.02163 17.14772 32523 ft 461 kts 277°
2026-05-01 08:20 52.02293 17.09602 32720 ft 460 kts 277°
2026-05-01 08:20 52.02422 17.04382 32902 ft 460 kts 277°
2026-05-01 08:20 52.02547 16.99205 33101 ft 459 kts 277°
2026-05-01 08:20 52.02671 16.94003 33300 ft 458 kts 277°
2026-05-01 08:21 52.02791 16.88870 33481 ft 457 kts 277°
2026-05-01 08:21 52.02908 16.83765 33669 ft 456 kts 277°
2026-05-01 08:21 52.03024 16.78590 33840 ft 456 kts 277°
2026-05-01 08:21 52.03137 16.73439 34003 ft 455 kts 276°
2026-05-01 08:22 52.03248 16.68339 34155 ft 455 kts 276°
2026-05-01 08:22 52.03357 16.63163 34319 ft 454 kts 276°
2026-05-01 08:22 52.03462 16.58101 34396 ft 454 kts 276°
2026-05-01 08:23 52.03670 16.47814 34408 ft 454 kts 276°
2026-05-01 08:23 52.03867 16.37533 34402 ft 453 kts 276°
2026-05-01 08:24 52.04053 16.27375 34395 ft 452 kts 276°
2026-05-01 08:24 52.04231 16.17203 34402 ft 451 kts 275°
2026-05-01 08:25 52.04400 16.07025 34402 ft 450 kts 275°
2026-05-01 08:25 52.04561 15.96875 34397 ft 449 kts 275°
2026-05-01 08:26 52.04712 15.86737 34403 ft 448 kts 275°
2026-05-01 08:26 52.04863 15.76614 34393 ft 448 kts 275°
2026-05-01 08:27 52.04994 15.66484 34398 ft 448 kts 275°
2026-05-01 08:27 52.05115 15.56363 34399 ft 448 kts 275°
2026-05-01 08:28 52.05229 15.46240 34408 ft 448 kts 274°
2026-05-01 08:28 52.05336 15.36182 34409 ft 449 kts 274°
2026-05-01 08:29 52.05435 15.26035 34413 ft 449 kts 274°
2026-05-01 08:29 52.05526 15.15884 34414 ft 450 kts 274°
2026-05-01 08:30 52.05607 15.05723 34415 ft 450 kts 274°
2026-05-01 08:30 52.05681 14.95545 34419 ft 450 kts 274°
2026-05-01 08:31 52.05746 14.85404 34416 ft 450 kts 274°
2026-05-01 08:31 52.05803 14.75165 34421 ft 450 kts 273°
2026-05-01 08:32 52.05747 14.65011 34411 ft 451 kts 272°
2026-05-01 08:32 52.05620 14.54830 34421 ft 451 kts 272°
2026-05-01 08:33 52.05491 14.44634 34420 ft 450 kts 272°
2026-05-01 08:33 52.05367 14.34511 34421 ft 449 kts 272°
2026-05-01 08:34 52.05239 14.24418 34428 ft 449 kts 271°
2026-05-01 08:34 52.05103 14.14239 34419 ft 448 kts 271°
2026-05-01 08:35 52.04958 14.04158 34421 ft 448 kts 271°
2026-05-01 08:35 52.04805 13.94019 34417 ft 448 kts 271°
2026-05-01 08:36 52.04671 13.85634 34415 ft 447 kts 271°
2026-05-01 08:36 52.04501 13.75523 34427 ft 447 kts 271°
2026-05-01 08:37 52.04294 13.63808 34417 ft 446 kts 271°
2026-05-01 08:37 52.04138 13.55419 34420 ft 446 kts 271°
2026-05-01 08:38 52.03943 13.45338 34420 ft 446 kts 271°
2026-05-01 08:38 52.03741 13.35293 34415 ft 446 kts 270°
2026-05-01 08:39 52.03529 13.25219 34416 ft 445 kts 270°
2026-05-01 08:39 52.03309 13.15166 34417 ft 445 kts 270°
2026-05-01 08:40 52.02965 13.00148 34415 ft 445 kts 270°
2026-05-01 08:40 52.02724 12.90117 34419 ft 444 kts 270°
2026-05-01 08:41 52.02474 12.80096 34423 ft 444 kts 270°
2026-05-01 08:41 52.02217 12.70086 34418 ft 444 kts 270°
2026-05-01 08:42 52.01951 12.60070 34429 ft 443 kts 270°
2026-05-01 08:42 52.01679 12.50133 34428 ft 443 kts 270°
2026-05-01 08:43 52.01397 12.40152 34430 ft 442 kts 269°
2026-05-01 08:43 52.01107 12.30185 34433 ft 442 kts 269°
2026-05-01 08:44 52.00809 12.20223 34440 ft 441 kts 269°
2026-05-01 08:44 52.00502 12.10263 34434 ft 441 kts 269°
2026-05-01 08:45 52.00188 12.00337 34435 ft 440 kts 269°
2026-05-01 08:45 51.99867 11.90411 34436 ft 440 kts 269°
2026-05-01 08:46 51.99538 11.80506 34443 ft 440 kts 268°
2026-05-01 08:46 51.99037 11.70611 34449 ft 440 kts 265°
2026-05-01 08:47 51.98349 11.60723 34452 ft 440 kts 265°
2026-05-01 08:47 51.97659 11.50856 34447 ft 440 kts 265°
2026-05-01 08:48 51.96994 11.41060 34453 ft 439 kts 265°
2026-05-01 08:48 51.96330 11.31228 34446 ft 438 kts 265°
2026-05-01 08:49 51.95661 11.21401 34453 ft 438 kts 265°
2026-05-01 08:49 51.94985 11.11591 34447 ft 438 kts 265°
2026-05-01 08:50 51.94299 11.01776 34442 ft 438 kts 264°
2026-05-01 08:50 51.93606 10.91974 34431 ft 438 kts 264°
2026-05-01 08:51 51.92903 10.82157 34425 ft 438 kts 264°
2026-05-01 08:51 51.92196 10.72403 34420 ft 438 kts 264°
2026-05-01 08:52 51.91477 10.62592 34428 ft 438 kts 264°
2026-05-01 08:52 51.90750 10.52788 34425 ft 438 kts 264°
2026-05-01 08:53 51.90020 10.43059 34425 ft 438 kts 264°
2026-05-01 08:53 51.89277 10.33272 34421 ft 438 kts 264°
2026-05-01 08:54 51.88528 10.23501 34421 ft 437 kts 264°
2026-05-01 08:54 51.87771 10.13744 34426 ft 436 kts 264°
2026-05-01 08:55 51.87151 10.05822 34423 ft 436 kts 264°
2026-05-01 08:55 51.86393 9.96242 34428 ft 435 kts 264°
2026-05-01 08:56 51.85618 9.86545 34426 ft 434 kts 264°
2026-05-01 08:56 51.84836 9.76861 34420 ft 434 kts 264°
2026-05-01 08:57 51.84047 9.67193 34416 ft 433 kts 264°
2026-05-01 08:57 51.83252 9.57533 34416 ft 433 kts 264°
2026-05-01 08:58 51.82143 9.47972 34421 ft 434 kts 257°
2026-05-01 08:58 51.80515 9.38580 34411 ft 434 kts 256°
2026-05-01 08:59 51.78843 9.29191 34413 ft 435 kts 256°
2026-05-01 08:59 51.77203 9.19794 34410 ft 435 kts 256°
2026-05-01 09:00 51.75589 9.10452 34412 ft 435 kts 256°
2026-05-01 09:00 51.73960 9.01022 34411 ft 436 kts 256°
2026-05-01 09:01 51.72323 8.91596 34409 ft 436 kts 256°
2026-05-01 09:01 51.70674 8.82160 34398 ft 437 kts 256°
2026-05-01 09:02 51.69017 8.72731 34403 ft 437 kts 256°
2026-05-01 09:02 51.67348 8.63283 34391 ft 438 kts 256°
2026-05-01 09:03 51.65686 8.53924 34401 ft 437 kts 256°
2026-05-01 09:03 51.64007 8.44517 34401 ft 437 kts 256°
2026-05-01 09:04 51.62319 8.35113 34397 ft 436 kts 256°
2026-05-01 09:04 51.60631 8.25750 34395 ft 436 kts 256°
2026-05-01 09:05 51.58935 8.16400 34389 ft 435 kts 255°
2026-05-01 09:05 51.57233 8.07060 34380 ft 434 kts 255°
2026-05-01 09:06 51.55528 7.97748 34377 ft 434 kts 255°
2026-05-01 09:06 51.53816 7.88447 34380 ft 434 kts 255°
2026-05-01 09:07 51.52110 7.79227 34376 ft 434 kts 255°
2026-05-01 09:07 51.50379 7.69917 34371 ft 434 kts 255°
2026-05-01 09:08 51.48644 7.60632 34375 ft 434 kts 255°
2026-05-01 09:08 51.46902 7.51355 34375 ft 434 kts 255°
2026-05-01 09:09 51.45154 7.42084 34375 ft 435 kts 255°
2026-05-01 09:09 51.43393 7.32800 34370 ft 435 kts 254°
2026-05-01 09:10 51.40793 7.24113 34346 ft 439 kts 236°
2026-05-01 09:10 51.37135 7.16284 34350 ft 440 kts 234°
2026-05-01 09:11 51.33431 7.08534 34349 ft 440 kts 234°
2026-05-01 09:11 51.29740 7.00705 34347 ft 439 kts 234°
2026-05-01 09:12 51.26134 6.93014 34331 ft 423 kts 234°
2026-05-01 09:12 51.22617 6.85521 34250 ft 423 kts 234°
2026-05-01 09:13 51.20852 6.81769 33933 ft 421 kts 234°
2026-05-01 09:13 51.19116 6.78084 33547 ft 417 kts 234°
2026-05-01 09:13 51.17376 6.74398 33127 ft 414 kts 234°
2026-05-01 09:13 51.15638 6.70722 32378 ft 420 kts 233°
2026-05-01 09:14 51.13884 6.67014 31986 ft 417 kts 233°
2026-05-01 09:14 51.12138 6.63328 31504 ft 417 kts 233°
2026-05-01 09:14 51.10403 6.59675 31129 ft 411 kts 233°
2026-05-01 09:14 51.08673 6.56092 30743 ft 402 kts 230°
2026-05-01 09:15 51.06791 6.52861 30363 ft 395 kts 225°
2026-05-01 09:15 51.04866 6.49835 29937 ft 387 kts 224°
2026-05-01 09:15 51.02947 6.46882 29579 ft 377 kts 224°
2026-05-01 09:15 51.01086 6.44017 29215 ft 368 kts 224°
2026-05-01 09:16 50.99274 6.41209 28866 ft 360 kts 224°
2026-05-01 09:16 50.97527 6.38486 28505 ft 352 kts 224°
2026-05-01 09:16 50.95779 6.35749 28167 ft 346 kts 224°
2026-05-01 09:17 50.92346 6.30368 27440 ft 360 kts 224°
2026-05-01 09:17 50.90540 6.27538 26995 ft 366 kts 224°
2026-05-01 09:17 50.87010 6.22013 26398 ft 352 kts 224°
2026-05-01 09:18 50.85268 6.19290 26083 ft 351 kts 224°
2026-05-01 09:18 50.81791 6.13864 25409 ft 353 kts 224°
2026-05-01 09:19 50.78234 6.08327 24669 ft 363 kts 224°
2026-05-01 09:19 50.76430 6.05524 24318 ft 363 kts 224°
2026-05-01 09:19 50.74644 6.02706 23926 ft 363 kts 226°
2026-05-01 09:20 50.71349 5.96708 23133 ft 360 kts 229°
2026-05-01 09:20 50.68127 5.90770 22418 ft 355 kts 227°
2026-05-01 09:21 50.66204 5.83796 21743 ft 354 kts 268°
2026-05-01 09:21 50.66512 5.79980 21405 ft 352 kts 289°
2026-05-01 09:21 50.68586 5.73063 20740 ft 348 kts 297°
2026-05-01 09:22 50.70818 5.66340 20092 ft 345 kts 297°
2026-05-01 09:22 50.73010 5.59630 19442 ft 342 kts 296°
2026-05-01 09:23 50.73726 5.57411 19226 ft 342 kts 296°
2026-05-01 09:23 50.75871 5.50724 18572 ft 340 kts 295°
2026-05-01 09:24 50.77997 5.44053 17855 ft 339 kts 295°
2026-05-01 09:24 50.79054 5.40726 17516 ft 338 kts 295°
2026-05-01 09:24 50.81156 5.34097 16868 ft 336 kts 295°
2026-05-01 09:25 50.83238 5.27520 16228 ft 333 kts 295°
2026-05-01 09:25 50.85298 5.20987 15591 ft 331 kts 294°
2026-05-01 09:26 50.86322 5.17737 15288 ft 330 kts 294°
2026-05-01 09:26 50.87853 5.11089 14825 ft 315 kts 271°
2026-05-01 09:26 50.88003 5.07792 14712 ft 310 kts 270°
2026-05-01 09:27 50.88264 5.01004 14061 ft 311 kts 270°
2026-05-01 09:27 50.88400 4.97579 13711 ft 311 kts 270°
2026-05-01 09:27 50.88541 4.94162 13380 ft 311 kts 270°
2026-05-01 09:28 50.88685 4.90756 13064 ft 310 kts 270°
2026-05-01 09:28 50.88830 4.87342 12737 ft 310 kts 270°
2026-05-01 09:28 50.88975 4.83936 12416 ft 309 kts 270°
2026-05-01 09:28 50.89119 4.80547 12100 ft 309 kts 271°
2026-05-01 09:29 50.89409 4.73745 11464 ft 309 kts 270°
2026-05-01 09:29 50.89552 4.70357 11146 ft 309 kts 270°
2026-05-01 09:30 50.89834 4.63609 10497 ft 302 kts 270°
2026-05-01 09:30 50.89969 4.60356 10361 ft 290 kts 270°
2026-05-01 09:30 50.90226 4.54047 9772 ft 287 kts 270°
2026-05-01 09:31 50.90436 4.50878 9338 ft 293 kts 274°
2026-05-01 09:31 50.90728 4.47697 9028 ft 289 kts 275°
2026-05-01 09:31 50.91316 4.41525 8427 ft 277 kts 275°
2026-05-01 09:32 50.91592 4.38530 8151 ft 271 kts 275°
2026-05-01 09:32 50.92110 4.32764 7633 ft 263 kts 274°
2026-05-01 09:32 50.92366 4.29898 7397 ft 264 kts 275°
2026-05-01 09:33 50.92624 4.26977 7150 ft 273 kts 274°
2026-05-01 09:33 50.92889 4.23952 6894 ft 280 kts 275°
2026-05-01 09:33 50.93409 4.17803 6287 ft 282 kts 270°
2026-05-01 09:34 50.93095 4.14812 5959 ft 272 kts 240°
2026-05-01 09:34 50.92018 4.12459 5690 ft 259 kts 219°
2026-05-01 09:34 50.89365 4.09067 5446 ft 232 kts 206°
2026-05-01 09:35 50.87882 4.08335 5143 ft 221 kts 180°
2026-05-01 09:35 50.85106 4.09432 4885 ft 199 kts 156°
2026-05-01 09:35 50.83773 4.10394 5008 ft 223 kts 154°
2026-05-01 09:36 50.82396 4.11766 4446 ft 240 kts 133°
2026-05-01 09:36 50.81585 4.13969 4379 ft 235 kts 106°
2026-05-01 09:36 50.81553 4.16527 4276 ft 228 kts 78°
2026-05-01 09:36 50.82079 4.18769 4218 ft 212 kts 70°
2026-05-01 09:37 50.82691 4.20843 4028 ft 205 kts 70°
2026-05-01 09:37 50.83845 4.24887 3729 ft 201 kts 69°
2026-05-01 09:37 50.84439 4.26872 3507 ft 200 kts 69°
2026-05-01 09:38 50.85042 4.28860 3095 ft 208 kts 69°
2026-05-01 09:38 50.85627 4.30891 2791 ft 196 kts 69°
2026-05-01 09:38 50.86194 4.32755 2620 ft 177 kts 69°
2026-05-01 09:39 50.87183 4.35998 2265 ft 158 kts 68°